Regional Weather Roundup
Issued by NWS

Home | Current Version | Previous Version | Graphics & Text | Print | Product List | Glossary On
Versions: 1 2 3 4 5 6 7 8 9 10 11 12 13 14 15 16 17 18 19 20 21 22 23 24 25 26 27 28 29 30 31 32 33 34 35 36 37 38 39 40 41 42 43 44 45 46 47 48 49 50
000
ASUS43 KIND 232159
RWRIN

WEATHER ROUNDUP FOR INDIANA
NATIONAL WEATHER SERVICE INDIANAPOLIS IN
500 PM EST MON JAN 23 2017

NOTE: "FAIR" INDICATES FEW OR NO CLOUDS BELOW 12,000 FEET WITH NO
SIGNIFICANT WEATHER AND/OR OBSTRUCTIONS TO VISIBILITY.

* - STATION DOES NOT REPORT WEATHER SUCH AS PRECIPITATION OR FOG.

+ - STATION NOT QUALITY CONTROLLED BY THE NATIONAL WEATHER SERVICE.
    USE DATA WITH CAUTION...ESPECIALLY DEWPOINT AND RELATIVE
    HUMIDITY OBSERVATIONS.

INZ001>003-010>013-019-020-232300-
NORTHWEST INDIANA

CITY           SKY/WX    TMP DP  RH WIND       PRES   REMARKS
GARY /AIRPORT/ MOCLDY    41  36  81 N12       29.75R
MICHIGAN CITY+ CLOUDY    37  37 100 NW6       29.74R
MONTICELLO +   CLOUDY    40  37  89 N14G20    29.70R
RENSSELAER +   CLOUDY    41  37  87 NW10      29.73R

$$

LMZ046-743>745-232300-
SOUTHERN LAKE MICHIGAN

STATION/POSITION TIME  TEMP    WIND        PRES    WAVE
                       AIR SEA DIR/SP/G            HT
                 (UTC) (F)     (DEG/KT/KT) (MB)    (FT)
BURNS HARBOR     2140   36     320/  5/  7 1008.1R
MICHIGAN CITY    2130   36     310/ 11/ 11   N/A

$$

INZ004-005-014>016-021>024-232300-
NORTH CENTRAL INDIANA

CITY           SKY/WX    TMP DP  RH WIND       PRES   REMARKS
ELKHART        CLOUDY    39  37  93 N13       29.69S FOG
GOSHEN         CLOUDY    41  38  89 NW12      29.68R FOG
SOUTH BEND     CLOUDY    38  38 100 N16       29.70F

$$

INZ006>009-017-018-025>027-232300-
NORTHEAST INDIANA

CITY           SKY/WX    TMP DP  RH WIND       PRES   REMARKS
ANGOLA *+      CLOUDY    41  30  65 N6        29.65R
FORT WAYNE     LGT RAIN  44  41  89 NW9       29.66R
KENDALLVILLE + LGT RAIN  41  41 100 N10       29.66R

$$

INZ028-029-035-036-043>045-051>053-232300-
WEST CENTRAL INDIANA

CITY           SKY/WX    TMP DP  RH WIND       PRES   REMARKS
CRAWFORDSVL +  CLOUDY    38  38 100 NW9G17    29.71R
LAFAYETTE      CLOUDY    41  37  86 N9        29.71R
TERRE HAUTE    CLOUDY    41  35  79 NW13      29.74R

$$

INZ030>032-037>040-046>048-054>057-064-065-232300-
CENTRAL INDIANA

CITY           SKY/WX    TMP DP  RH WIND       PRES   REMARKS
COLUMBUS       CLOUDY    43  43 100 NW14G21   29.65S FOG
INDIANAPOLIS   CLOUDY    41  39  93 NW13      29.67R FOG
-EAGLE CREEK   CLOUDY    42  39  89 NW12      29.66S
KOKOMO +       CLOUDY    41  40  96 NW13      29.68R FOG
MT COMFORT *+  CLOUDY    41  41 100 NW12      29.66R
SHELBYVILLE    CLOUDY    44  40  85 NW14      29.64R

$$

INZ033-034-041-042-049-050-058-059-232300-
EAST CENTRAL INDIANA

CITY           SKY/WX    TMP DP  RH WIND       PRES   REMARKS
MUNCIE         CLOUDY    45  42  89 N15       29.64R

$$

INZ060-061-067>069-081>083-085>088-232300-
SOUTHWEST INDIANA

CITY           SKY/WX    TMP DP  RH WIND       PRES   REMARKS
EVANSVILLE     CLOUDY    42  35  76 NW13G25   29.76R
HUNTINGBURG *+ CLOUDY    42  37  82 NW14      29.73R

$$

INZ062-063-066-070>080-084-089>092-232300-
SOUTH CENTRAL AND SOUTHEAST INDIANA

CITY           SKY/WX    TMP DP  RH WIND       PRES   REMARKS
BLOOMINGTON    CLOUDY    43  38  82 NW7       29.68R
MADISON *+     CLOUDY    43  41  93 NW8G16    29.65R
SEYMOUR +      CLOUDY    46  41  81 NW12      29.65R

$$





USA.gov is the U.S. government's official web portal to all federal, state and local government web resources and services.